EST,Max TemperatureF,Mean TemperatureF,Min TemperatureF,Max Dew PointF,MeanDew PointF,Min DewpointF,Max Humidity, Mean Humidity, Min Humidity, Max Sea Level PressureIn, Mean Sea Level PressureIn, Min Sea Level PressureIn, Max VisibilityMiles, Mean VisibilityMiles, Min VisibilityMiles, Max Wind SpeedMPH, Mean Wind SpeedMPH, Max Gust SpeedMPH,PrecipitationIn, CloudCover, Events, WindDirDegrees
2012-12-1,75,60,44,59,50,45,100,83,41,30.35,30.29,30.26,10,9,4,6,1,,0.00,1,,88
2012-12-2,78,62,46,63,55,46,100,87,51,30.37,30.30,30.24,10,10,5,8,1,,0.00,3,,199
2012-12-3,78,64,50,63,54,50,100,83,39,30.33,30.27,30.23,10,10,7,10,1,,0.00,4,,200
2012-12-4,78,62,46,64,54,46,100,85,42,30.34,30.26,30.22,10,8,0,8,1,,0.00,2,Fog,176
2012-12-5,78,62,46,61,53,46,100,79,39,30.24,30.16,30.09,10,10,7,6,0,,0.00,1,,210
2012-12-6,73,62,50,61,56,50,100,84,64,30.12,30.07,30.01,10,10,7,10,2,,0.00,5,,69
2012-12-7,69,61,53,61,58,54,100,88,68,30.09,30.03,29.98,10,9,7,9,4,,0.00,6,,81
2012-12-8,73,64,55,64,61,55,100,91,73,30.07,30.02,29.98,10,9,5,8,1,,0.00,8,,209
2012-12-9,73,64,55,64,61,55,100,93,65,30.13,30.06,30.00,10,8,2,6,2,,0.00,5,,209
2012-12-10,80,66,51,68,60,52,100,90,58,29.99,29.88,29.77,10,7,0,17,3,25,0.00,5,Fog-Rain,206
2012-12-11,62,55,48,63,50,43,100,86,72,30.16,30.01,29.85,10,10,5,10,4,17,0.00,8,Rain-Thunderstorm,343
2012-12-12,50,46,42,48,45,43,100,96,82,30.21,30.16,30.09,10,6,2,10,2,,0.00,8,Rain-Thunderstorm,24
2012-12-13,60,50,41,46,46,41,100,87,59,30.33,30.28,30.21,10,9,5,10,5,,0.00,5,,49
2012-12-14,64,50,35,50,45,36,100,86,55,30.37,30.28,30.20,10,9,3,12,2,,0.00,2,,74
2012-12-15,68,57,46,55,50,46,100,86,60,30.24,30.15,30.08,10,10,10,6,1,,0.00,1,,96
2012-12-16,73,60,48,66,58,48,100,90,65,30.09,29.99,29.89,10,9,0,10,2,17,0.00,6,Fog-Rain,202
2012-12-17,64,60,55,63,59,55,100,97,88,29.98,29.86,29.77,10,9,1,15,3,23,0.00,7,Rain-Thunderstorm,168
2012-12-18,68,54,39,55,47,39,100,81,37,30.06,29.97,29.82,10,9,4,9,3,,0.00,1,,296
2012-12-19,73,53,33,48,42,34,100,80,33,30.14,30.08,30.05,10,10,10,7,1,,0.00,0,,176
2012-12-20,71,56,41,70,50,34,100,84,51,30.07,29.94,29.76,10,10,2,14,3,23,0.00,3,Rain,251
2012-12-21,53,46,39,34,26,21,66,48,28,30.27,30.17,30.07,10,10,10,16,8,26,0.00,0,,291
2012-12-22,60,46,32,34,26,19,100,57,23,30.37,30.29,30.25,10,10,10,10,3,,0.00,0,,306
2012-12-23,59,46,32,41,35,32,100,76,36,30.28,30.21,30.12,10,10,7,6,0,,0.00,1,,228
2012-12-24,69,56,42,64,55,41,100,93,82,30.11,29.97,29.89,10,9,2,16,3,25,0.00,6,Rain-Thunderstorm,209
2012-12-25,64,60,55,63,59,55,100,98,88,29.97,29.88,29.68,10,7,1,14,2,21,0.00,8,Rain-Thunderstorm,122
2012-12-26,66,54,41,64,43,34,100,76,66,30.08,29.84,29.60,10,10,4,23,12,30,0.00,7,Rain-Thunderstorm,273
2012-12-27,53,43,32,41,36,32,100,79,54,30.16,30.10,30.07,10,10,7,9,5,17,0.00,4,,326
2012-12-28,57,44,32,48,39,32,100,83,59,30.13,30.02,29.83,10,9,2,7,1,,0.00,3,Rain,100
2012-12-29,51,46,41,50,42,32,100,82,66,30.31,30.03,29.75,10,9,2,13,6,24,0.00,8,Rain,309
2012-12-30,55,44,32,36,32,30,100,69,38,30.48,30.41,30.31,10,10,10,9,4,,0.00,0,,357
2012-12-31,62,47,32,52,42,32,100,87,62,30.43,30.32,30.18,10,10,7,6,0,,0.00,3,,220